Tracking 30143 objects as of 20-Jan-2025
HD Live streaming from Space Station
objects crossing your sky now

COSMOS 2302

Track COSMOS 2302 now!
10-day predictions
COSMOS 2302 is classified as:


NORAD ID: 23444
Int'l Code: 1994-086D
Perigee: 1,420.2 km
Apogee: 1,429.7 km
Inclination: 82.6 °
Period: 114.2 minutes
Semi major axis: 7795 km
RCS: 1.0234 m2 (large)
Launch date: December 26, 1994
Source: Commonwealth of Independent States (former USSR) (CIS)
Launch site: PLESETSK MISSILE AND SPACE COMPLEX (PKMTR)
Your satellite tracking list
Your tracking list is empty




NASA's NSSDC Master Catalog

Two Line Element Set (TLE):
1 23444U 94086D   25019.83141505  .00000043  00000-0  18650-3 0  9998
2 23444  82.5668 294.7836 0006105 266.6524 158.3599 12.61254489384104
Source of the keplerian elements: AFSPC